Location: Aucun
(42.9667°N, 0.1667°W)
Time: 15:20:08
(UTC+00:00)

Cosmos 1459 Rocket - Pass Details

Date: 17 February 2020
Orbit: 938 x 999 km, 83.0° (Epoch: 08 April)

Event Time Altitude Azimuth Distance (km) Brightness Sun altitude
Rises 05:13:17 0° 354° (N) 3,638 7.0 -19.5°
Reaches altitude 10° 05:15:48 10° 358° (N) 2,696 6.3 -19.0°
Maximum altitude 05:21:57 66° 80° (E) 1,051 4.4 -17.9°
Drops below altitude 10° 05:28:08 10° 163° (SSE) 2,721 6.6 -16.7°
Sets 05:30:41 0° 166° (SSE) 3,673 7.2 -16.3°
